sat.trackr.live / text

‹ back to catalog

STARLINK-5774

NORAD 56029 · 2023-042AV

PAYLOAD ACTIVE UNKNOWN

§ Identity

Operator
Country
US
Launch date
2023-03-24
Launch site
AFETR
Launch vehicle
Mass (kg)
RCS (m²)

Purposes: comms

External: N2YO · Heavens-Above · Gunter

§ Orbital elements

Epoch: 2026-09-20T20:02:24.319680Z

Period
94.27 min
Inclination
43.0040°
Eccentricity
0.0001284
Mean motion
15.27568239 rev/d
Perigee alt
482.2 km
Apogee alt
484.0 km
Semi-major
6,861.2 km
B*
-2.3516e-5
RAAN
22.8688°
Arg perigee
271.0987°
Mean anomaly
88.9718°
Rev number
19,288

§ Raw data

STARLINK-57741 56029U 23042AV  26263.83500370 -.00000909  00000+0 -23516-4 0  99982 56029  43.0040  22.8688 0001284 271.0987  88.9718 15.27568239192885

JSON: /api/v1/satellites/56029 · /tle

For live sub-satellite position, see the globe view (requires WebGL).

§ Visibility from observer

Set your observer location to see the next 7 days of passes ≥ 10°. The values pass through the URL so the page stays shareable.

No JS? Fill the form by hand. The geolocation button needs JavaScript.